Date String (YYYY-MM-DD hh:mm:ss) UTC,Instrument flags,absolute air pressure of the measurement (hPa),sample flow rate (lpm),inlet stack bypass flow (lpm),air temperature of the measurement (°C),ambient temperature measured by the external sensor (°C),aerosol sample conditioner tube jacket temperature (°C),OPC LED temperature (°C),internal box temperature (°C),relative humidity of the measurement (%),span deviation,mass concentration of particles derived from Lorenz-Mie calculation of OPC scattering (μg/m³),mass concentration of particles derived from Lorenz-Mie calculation of OPC scattering (μg/m³),mass concentration of particles derived from Lorenz-Mie calculation of OPC scattering (μg/m³)
DateTimeUTC,F1_M11,P_M11,Q1_M11,Q2_M11,T1_M11,T2_M11,T3_M11,T4_M11,T5_M11,U1_M11,ZSPAN_M11,X2_M11,X0_M11,X1_M11
2023-08-24 17:00:00,SystemResetWarning,0833.8,5.01,000.00,027.8,024.1,000.0,035.9,029.0,32.3,0002.0,0008.46,0015.20,0007.56
2023-08-24 17:01:00,SystemResetWarning,0833.8,5.00,000.00,027.7,024.3,000.0,036.0,029.0,32.0,0002.2,0008.41,0015.34,0007.50
2023-08-24 17:02:00,SystemResetWarning,0833.8,4.99,000.00,027.7,024.7,000.0,036.0,029.1,32.0,0002.0,0008.38,0015.38,0007.47
2023-08-24 17:03:00,SystemResetWarning,0833.8,5.00,000.00,027.7,025.1,000.0,036.0,029.2,31.9,0001.6,0008.37,0015.55,0007.44
2023-08-24 17:04:00,SystemResetWarning,0833.8,5.00,000.00,027.7,025.6,000.0,036.0,029.3,31.5,0001.6,0008.37,0015.11,0007.43
2023-08-24 17:05:00,SystemResetWarning,0833.8,5.01,000.00,027.8,025.9,000.0,036.1,029.5,31.5,0001.9,0008.35,0014.83,0007.39
2023-08-24 17:06:00,SystemResetWarning,0833.8,5.00,000.00,027.8,026.2,000.0,036.1,029.5,31.2,0001.7,0008.34,0014.88,0007.36
2023-08-24 17:07:00,SystemResetWarning,0833.8,4.98,000.00,027.8,025.3,000.0,036.0,029.3,31.0,0001.8,0008.34,0015.11,0007.35
2023-08-24 17:08:00,SystemResetWarning,0833.8,5.01,000.00,027.7,024.3,000.0,035.9,029.0,31.4,0002.0,0008.24,0015.74,0007.29
2023-08-24 17:09:00,SystemResetWarning,0833.7,5.01,000.00,027.6,024.3,000.0,035.8,029.0,31.0,0001.6,0008.12,0015.69,0007.22
2023-08-24 17:10:00,SystemResetWarning,0833.8,4.99,000.00,027.6,024.7,000.0,035.9,029.0,30.8,0001.6,0008.03,0014.65,0007.18
2023-08-24 17:11:00,SystemResetWarning,0833.8,5.00,000.00,027.6,025.1,000.0,035.9,029.2,30.8,0001.9,0008.00,0014.13,0007.14
2023-08-24 17:12:00,SystemResetWarning,0833.8,5.00,000.00,027.7,025.5,000.0,036.0,029.3,30.7,0002.1,0007.98,0014.00,0007.12
2023-08-24 17:13:00,SystemResetWarning,0833.8,5.00,000.00,027.7,025.9,000.0,036.0,029.4,30.7,0002.1,0007.93,0013.91,0007.09
2023-08-24 17:14:00,SystemResetWarning,0833.8,5.00,000.00,027.7,026.1,000.0,036.0,029.5,30.4,0002.6,0007.85,0013.66,0007.03
2023-08-24 17:15:00,SystemResetWarning,0833.8,4.97,000.00,027.7,025.2,000.0,035.9,029.3,29.9,0002.8,0007.81,0013.67,0006.98
2023-08-24 17:16:00,SystemResetWarning,0833.8,5.01,000.00,027.7,024.1,000.0,035.8,029.1,30.2,0002.4,0007.80,0013.68,0006.98
2023-08-24 17:17:00,SystemResetWarning,0833.8,5.01,000.00,027.6,024.2,000.0,035.8,029.0,30.6,0002.1,0007.75,0013.99,0006.97
2023-08-24 17:18:00,SystemResetWarning,0833.8,5.00,000.00,027.6,024.6,000.0,035.8,029.1,30.0,0002.2,0007.67,0013.83,0006.92
2023-08-24 17:19:00,SystemResetWarning,0833.8,4.99,000.00,027.6,025.0,000.0,035.9,029.2,30.4,0002.1,0007.58,0012.95,0006.87
2023-08-24 17:20:00,SystemResetWarning,0833.8,5.00,000.00,027.6,025.4,000.0,035.9,029.3,31.2,0002.2,0007.55,0012.17,0006.85
2023-08-24 17:21:00,SystemResetWarning,0833.8,5.00,000.00,027.6,025.8,000.0,035.9,029.4,31.8,0002.4,0007.56,0012.02,0006.83
2023-08-24 17:22:00,SystemResetWarning,0833.8,4.99,000.00,027.7,026.1,000.0,035.9,029.4,32.0,0002.5,0007.60,0012.18,0006.85
2023-08-24 17:23:00,SystemResetWarning,0833.7,4.97,000.00,027.7,025.1,000.0,035.8,029.2,32.0,0002.4,0007.60,0012.18,0006.87
2023-08-24 17:24:00,SystemResetWarning,0833.8,5.01,000.00,027.6,024.1,000.0,035.8,029.0,31.8,0002.5,0007.60,0012.10,0006.87
2023-08-24 17:25:00,SystemResetWarning,0833.8,5.01,000.00,027.6,024.2,000.0,035.7,029.0,31.9,0002.3,0007.68,0012.27,0006.93
2023-08-24 17:26:00,SystemResetWarning,0833.8,4.99,000.00,027.5,024.6,000.0,035.8,029.0,32.0,0002.3,0007.75,0013.56,0006.98
2023-08-24 17:27:00,SystemResetWarning,0833.8,5.00,000.00,027.5,025.0,000.0,035.8,029.1,31.4,0002.4,0007.75,0014.10,0007.00
2023-08-24 17:28:00,SystemResetWarning,0833.8,5.01,000.00,027.6,025.4,000.0,035.9,029.2,31.5,0002.3,0007.77,0014.41,0006.99
2023-08-24 17:29:00,SystemResetWarning,0833.8,5.00,000.00,027.6,025.8,000.0,035.9,029.3,31.4,0002.2,0007.78,0014.03,0007.00
2023-08-24 17:30:00,SystemResetWarning,0833.8,4.99,000.00,027.6,026.1,000.0,035.9,029.4,31.5,0001.7,0007.88,0014.18,0007.05
2023-08-24 17:31:00,SystemResetWarning,0833.8,4.98,000.00,027.6,025.1,000.0,035.8,029.2,31.7,0001.3,0008.04,0014.46,0007.13
2023-08-24 17:32:00,SystemResetWarning,0833.8,5.01,000.00,027.6,024.1,000.0,035.7,029.0,31.8,0001.5,0008.16,0014.74,0007.20
2023-08-24 17:33:00,SystemResetWarning,0833.8,5.01,000.00,027.5,024.2,000.0,035.7,028.9,32.5,0001.7,0008.20,0014.89,0007.21
2023-08-24 17:34:00,SystemResetWarning,0833.8,4.99,000.00,027.5,024.5,000.0,035.7,029.0,32.1,0001.8,0008.17,0014.65,0007.19
2023-08-24 17:35:00,SystemResetWarning,0833.8,5.01,000.00,027.5,025.0,000.0,035.8,029.1,31.8,0001.8,0008.16,0014.68,0007.18
2023-08-24 17:36:00,SystemResetWarning,0833.8,5.01,000.00,027.5,025.4,000.0,035.8,029.2,31.7,0001.9,0008.12,0014.65,0007.15
2023-08-24 17:37:00,SystemResetWarning,0833.8,5.01,000.00,027.6,025.8,000.0,035.8,029.3,31.7,0001.7,0008.06,0013.71,0007.11
2023-08-24 17:38:00,SystemResetWarning,0833.7,4.99,000.00,027.6,026.1,000.0,035.9,029.4,31.5,0001.4,0008.00,0012.88,0007.07
2023-08-24 17:39:00,SystemResetWarning,0833.8,4.99,000.00,027.6,025.9,000.0,035.8,029.4,31.7,0001.4,0007.99,0012.53,0007.05
2023-08-24 17:40:00,SystemResetWarning,0833.8,5.00,000.00,027.6,024.6,000.0,035.7,029.1,31.8,0001.3,0007.96,0012.72,0007.02
2023-08-24 17:41:00,SystemResetWarning,0833.8,5.01,000.00,027.5,024.1,000.0,035.7,029.0,31.7,0001.1,0007.88,0013.01,0006.95
2023-08-24 17:42:00,SystemResetWarning,0833.8,5.00,000.00,027.5,024.4,000.0,035.7,029.0,32.1,0001.1,0007.77,0012.68,0006.89
2023-08-24 17:43:00,SystemResetWarning,0833.7,5.00,000.00,027.5,024.8,000.0,035.7,029.0,32.0,0000.8,0007.63,0012.44,0006.82
2023-08-24 17:44:00,SystemResetWarning,0833.8,5.00,000.00,027.5,025.2,000.0,035.8,029.2,30.9,0000.4,0007.55,0012.22,0006.77
2023-08-24 17:45:00,SystemResetWarning,0833.8,5.00,000.00,027.5,025.6,000.0,035.8,029.3,31.4,0000.0,0007.53,0012.27,0006.75
2023-08-24 17:46:00,SystemResetWarning,0833.8,5.00,000.00,027.6,025.9,000.0,035.8,029.4,32.0,0000.2,0007.49,0012.11,0006.73
2023-08-24 17:47:00,SystemResetWarning,0833.8,4.98,000.00,027.6,025.0,000.0,035.8,029.2,32.5,0000.3,0007.44,0012.00,0006.70
2023-08-24 17:48:00,SystemResetWarning,0833.7,5.01,000.00,027.5,024.1,000.0,035.7,028.8,32.4,0000.3,0007.42,0011.86,0006.67
2023-08-24 17:49:00,SystemResetWarning,0833.8,5.01,000.00,027.4,024.2,000.0,035.6,028.8,32.8,0000.2,0007.40,0011.95,0006.64
2023-08-24 17:50:00,SystemResetWarning,0833.8,5.00,000.00,027.4,024.5,000.0,035.7,028.9,32.4,0000.0,0007.37,0012.03,0006.60
2023-08-24 17:51:00,SystemResetWarning,0833.7,5.01,000.00,027.4,024.9,000.0,035.7,029.0,32.6,0000.2,0007.30,0011.54,0006.58
2023-08-24 17:52:00,SystemResetWarning,0833.8,5.00,000.00,027.4,025.3,000.0,035.7,029.2,33.1,0000.7,0007.26,0011.09,0006.57
2023-08-24 17:53:00,SystemResetWarning,0833.7,5.00,000.00,027.5,025.8,000.0,035.8,029.3,33.1,0001.2,0007.26,0011.35,0006.57
2023-08-24 17:54:00,SystemResetWarning,0833.8,5.00,000.00,027.5,026.1,000.0,035.8,029.4,32.5,0001.3,0007.33,0011.76,0006.57
2023-08-24 17:55:00,SystemResetWarning,0833.7,4.98,000.00,027.6,025.9,000.0,035.8,029.4,31.9,0001.4,0007.36,0011.81,0006.58
2023-08-24 17:56:00,SystemResetWarning,0833.7,4.99,000.00,027.5,024.6,000.0,035.7,029.1,30.8,0001.4,0007.36,0012.16,0006.57
2023-08-24 17:57:00,SystemResetWarning,0833.7,5.01,000.00,027.5,024.2,000.0,035.6,028.9,31.4,0001.4,0007.40,0012.77,0006.57
2023-08-24 17:58:00,SystemResetWarning,0833.7,5.01,000.00,027.4,024.4,000.0,035.6,029.0,31.3,0001.3,0007.40,0012.78,0006.57
2023-08-24 17:59:00,SystemResetWarning,0833.7,4.99,000.00,027.4,024.8,000.0,035.7,029.0,31.6,0001.0,0007.38,0013.41,0006.58
